free page hit counter

Jackpot

Texas Poker Multi Jackpot System

Kini Telah hadir Jackpot SUPER ROYAL FLUSH

Kini Telah hadir Jackpot 2000 (khusus table VIP keatas).

Ikutilah global jackpot yang tersedia di system kami, dengan system jackpot terbaru dan pertama di indonesia, anda dapat membeli jackpot dengan harga 100 rupiah saja dan menangkan hadiahnya hingga puluhan juta rupiah.

Jackpot bukanlah suatu keharusan untuk dibeli, namun kami memberikan suatu fitur tambahan untuk member tercinta dari www.hatipoker188.com.

Terdapat tiga pilihan harga jackpot yang bisa anda beli yaitu :100,500,1000 dan 2000(khusus table VIP Keatas) rupiah.

Hadiah dari Multi jackpot system www.hatipoker188.com

  1. full house x 10 harga jackpot yang anda beli.
      (contoh:anda membeli 1000 maka:1000 X10 = 10.000)
  2. four of kind x 250 harga jackpot yang anda beli
      (contoh:anda membeli 1000 maka:1000 X250 = 250.000)
  3. Straight flush x 1200
      (contoh:anda membeli 1000 maka:1000 X1200 = 1.200.000)
  4. Royal flush x 10000 harga jackpot yang anda beli
      (contoh:anda membeli 1000 maka:1000 X10000 = 10.000.000)
  5. SUPER ROYAL FLUSH x 30000 harga jackpot yang anda beli
      (contoh:anda membeli 1000 maka:1000 X30000 = 30.000.000)

Kondisi kartu

  1. full house adalah kondisi kartu dimana kartu anda dan kartu tengah dengan total 7 kartu bisa mendapatkan nilai 5 kartu dengan kombinasi 1 tris(three of kind) dan 1 pair, contoh 3 kartu 10 dan 2 kartu 5
  2. Four of kind adalah kondisi kartu dimana kartu anda dan kartu tengah dengan total 7 kartu bisa mendapatkan nilai 5 kartu dengan kombinasi 4 kartu yang sama jumlah dan 1 kartu apapun juga contoh anda mendapatkan 4 buah kartu angka 3 dan 1 kartu apapun.
  3. Staright flush adalah kondisi kartu dimana kartu anda dan kartu tengah dengan total 7 kartu bisa mendapatkan nilai 5 kartu dengan kombinasi seri / staright dengan kembang yang sama contoh : urutan kartu dari angka 5, 6, 7, 8 , 9 10 dengan kembang yg sama misalnya as hati
  4. Royal flush adalah kondisi kartu dimana kartu anda dan kartu tengah dengan total 7 kartu bisa mendapatkan nilai 5 kartu dengan kombinasi seri / staright dengan kembang yang sama tetapi kartu tersebut haruslah dimulai dari 10. contoh 10, Queen, Jack, King dan aces dengan kembang yang sama
  5. Super Royal flush adalah kondisi kartu dimana Kedua kartu anda digabung dengan 3 kartu pertama meja haruslah royal flush. contoh kartu anda 10,Queen kembang sama dan 3 kartu pertama meja adalah Jack, King dan aces dengan kembang yang sama

Demikian adalah penjelasan dari Multi Jackpot www.hatipoker188.com terima kasih dan selamat bermain salam hoki dari kami

Texas Poker Jackpot Winner

TOP SUPER ROYAL FLUSH
No.TanggalNamaPriceWin
122/10 00:06OVERDECKSuper Royal flush6,000,000
221/10 22:56AEC441EBSuper Royal flush6,000,000
321/10 22:33SRIGALA01Super Royal flush30,000,000
421/10 22:28M0EZASuper Royal flush3,000,000
521/10 21:32PRAMBANAN7Super Royal flush3,000,000
TOP ROYAL FLUSH
No.TanggalNamaPriceWin
122/10 05:48CANET123Royal flush5,000,000
222/10 05:24MAMATGADERoyal flush1,000,000
322/10 05:09WIJI34Royal flush1,000,000
422/10 05:03KINGARTRoyal flush2,000,000
522/10 04:46K3NTUT89Royal flush5,000,000
TOP STRAIGHT FLUSH
No.TanggalNamaPriceWin
122/10 05:48BEDE6ELEStraight Flush600,000
222/10 05:42CIOK123Straight Flush600,000
322/10 05:42SEMBILAN71Straight Flush240,000
422/10 05:36JUNK_LANAStraight Flush120,000
522/10 05:34TEBO1122Straight Flush120,000
LATEST JACKPOT
No.TanggalNamaPriceWin
122/10 05:51QIMS88Full House20,000
222/10 05:51DEWADJAWAFull House2,000
322/10 05:51FXMAXFour Of A Kind50,000
422/10 05:51LAKILAKI_Four Of A Kind50,000
522/10 05:51MANAYA21Four Of A Kind25,000
622/10 05:51AZB1LFull House10,000
722/10 05:51RUFOFZZKK9Full House1,000
822/10 05:51KANGDEDENFull House20,000
922/10 05:51PUJI1977Full House1,000
1022/10 05:51DTOBINGFull House5,000
1122/10 05:51AGAM004Full House1,000
1222/10 05:51MELIK4Full House5,000
1322/10 05:51MCJ25UX5ARFull House5,000
1422/10 05:51KOLONOFull House20,000
1522/10 05:50Y7LVJSFYQIFull House2,000
1622/10 05:50ELEGAN22Full House2,000
1722/10 05:50P4D1Full House5,000
1822/10 05:50ROBIN702Full House5,000
1922/10 05:50BDOEL999Full House5,000
2022/10 05:50ANYANGELIAFull House5,000
2122/10 05:50B8E71009Full House1,000
2222/10 05:50HOKI1285Full House5,000
2322/10 05:50MA4RGONOFull House1,000
2422/10 05:50FONDRA18Full House1,000
2522/10 05:50TEMPENGFull House2,000
2622/10 05:50B4J0NG00Full House2,000
2722/10 05:50SIKZLUIIFull House2,000
2822/10 05:50MADUN9999Full House20,000
2922/10 05:50BUDY14Full House2,000
3022/10 05:50UKYZR23Full House2,000
3122/10 05:50DENY8989Full House5,000
3222/10 05:50D6C36564Full House5,000
3322/10 05:50DWBTND2210Full House2,000
3422/10 05:50KOR02ANGFull House10,000
3522/10 05:50BANANA555Full House5,000
3622/10 05:50AZKA1093Full House5,000
3722/10 05:50KZC2EW6P29Full House2,000
3822/10 05:50AMAI9999Four Of A Kind50,000
3922/10 05:50WABERFull House5,000
4022/10 05:50LOIS333Full House10,000
4122/10 05:50RAJADUIT_Full House2,000
4222/10 05:50AZMETA880Full House1,000
4322/10 05:50BOLANGJMBLFull House2,000
4422/10 05:50ALIF4X6Full House2,000
4522/10 05:50HERMAS22Full House10,000
4622/10 05:50RE_RENT88Full House1,000
4722/10 05:50KIPLIK99Full House2,000
4822/10 05:50BONXOXFull House5,000
4922/10 05:50D985A473Full House1,000
5022/10 05:50C862B0A5Full House500

Domino Multi Jackpot System

Ikutilah global jackpot yang tersedia di system kami, dengan system jackpot terbaru dan pertama di indonesia, anda dapat membeli jackpot dengan harga 100 rupiah saja dan menangkan hadiahnya hingga puluhan juta rupiah.

Jackpot bukanlah suatu keharusan untuk dibeli, namun kami memberikan suatu fitur tambahan untuk member tercinta dari www.hatipoker188.com.

Terdapat tiga pilihan harga jackpot yang bisa anda beli yaitu :100,500 dan 1000 rupiah.

Hadiah dari Multi jackpot system www.hatipoker188.com

  1. Murni Kecil x 50 harga jackpot yang anda beli.
      (contoh:anda membeli 1000 maka:1000 X 50 = 50.000)
  2. Murni Besar x 50 harga jackpot yang anda beli
      (contoh:anda membeli 1000 maka:1000 X 50 = 50.000)
  3. BALAK x 100 harga jackpot yang anda beli
      (contoh:anda membeli 1000 maka:1000 X 100 = 100.000)
  4. ENAM DEWA x 6666 harga jackpot yang anda beli
      (contoh:anda membeli 1000 maka:1000 X 6666 = 6.666.000)

Demikian adalah penjelasan dari Multi Jackpot www.hatipoker188.com terima kasih dan selamat bermain salam hoki dari kami

Domino Jackpot Winner

TOP ENAM DEWA
No.TanggalNamaPriceWin
122/10 03:52C4NGCUT321murni enam6,666,000
222/10 03:43KINGSDTmurni enam3,333,000
322/10 01:04RAJAROYALmurni enam6,666,000
421/10 23:37USSAHAmurni enam6,666,000
521/10 22:09SOOOOT21murni enam3,333,000
TOP BALAK
No.TanggalNamaPriceWin
122/10 05:48SKGFAbalak50,000
222/10 05:48CADELEEEbalak50,000
322/10 05:41WALUH003balak10,000
422/10 05:38SMRR_66balak10,000
522/10 05:35IW4N98balak10,000
LATEST JACKPOT
No.TanggalNamaPriceWin
122/10 05:50SMRR_66murni besar5,000
222/10 05:50B65BC1CAmurni besar25,000
322/10 05:48SKGFAbalak50,000
422/10 05:48CADELEEEbalak50,000
522/10 05:46ROSWANAmurni kecil50,000
622/10 05:46MACHO54323murni kecil25,000
722/10 05:44IQ6666murni besar50,000
822/10 05:44GALAXSY12murni besar50,000
922/10 05:43PETEK86murni kecil25,000
1022/10 05:43SULIS09murni besar50,000
1122/10 05:43ORGANIK26lucky9910,000
1222/10 05:43CHAA95murni besar50,000
1322/10 05:43JACKPOT09murni kecil50,000
1422/10 05:41WALUH003balak10,000
1522/10 05:40ROSWANAmurni besar50,000
1622/10 05:40HARI1919murni besar5,000
1722/10 05:39UDINKOCUmurni besar5,000
1822/10 05:38SMRR_66balak10,000
1922/10 05:38LONG1993murni besar5,000
2022/10 05:38BD8771BCmurni kecil5,000
2122/10 05:35IW4N98balak10,000
2222/10 05:34GALAXSY12murni kecil50,000
2322/10 05:33UNTUNG2121murni kecil25,000
2422/10 05:32LB881950murni besar50,000
2522/10 05:32DEDEKZHAbalak10,000
2622/10 05:32SAMSUNG35murni kecil25,000
2722/10 05:32ROBOTCOMmurni besar25,000
2822/10 05:32TIWUK1983murni kecil50,000
2922/10 05:31ARUL114balak100,000
3022/10 05:29WD_BOS_KOmurni besar25,000
3122/10 05:26GAYUNG29murni kecil25,000
3222/10 05:25LONG1993balak10,000
3322/10 05:24LVYJDQYCBHmurni kecil25,000
3422/10 05:24YOSEPOOKmurni besar25,000
3522/10 05:24ARGIYAK1murni besar50,000
3622/10 05:22MPEW11murni besar50,000
3722/10 05:22ROSWANAmurni besar50,000
3822/10 05:21COLA98murni besar5,000
3922/10 05:21KIANSANTA9murni kecil50,000
4022/10 05:20BTXJEmurni besar5,000
4122/10 05:20RHILY01balak100,000
4222/10 05:20JAYEENJHEmurni besar50,000
4322/10 05:19GCWmurni kecil50,000
4422/10 05:18PETEK86murni besar25,000
4522/10 05:17MITHA1murni besar25,000
4622/10 05:16MANYAL05murni kecil50,000
4722/10 05:16TVZRSFN3OGbalak50,000
4822/10 05:12SANTOOKmurni kecil25,000
4922/10 05:11RHILY01murni besar50,000
5022/10 05:10CIKQYUmurni kecil25,000

Ceme Multi Jackpot System

Jackpot dilihat dari gabungan kartu pemain dengan kartu bandar. Bandar harus membeli jackpot sebanyak jumlah player yang sedang duduk. Sebagai contoh bila terdapat 3 pemain duduk bermain, dan bandar memutuskan untuk membeli jackpot Rp 1.000, maka pada periode tersebut bandar akan membeli jackpot sebanyak 3xRp1.000 = Rp3.000.

Jackpot bukanlah suatu keharusan untuk dibeli, namun kami memberikan suatu fitur tambahan untuk member tercinta dari www.hatipoker188.com.

Terdapat tiga pilihan harga jackpot yang bisa anda beli yaitu :100,500 dan 1000 rupiah.

Hadiah dari Multi jackpot system www.hatipoker188.com

  1. Murni Kecil x 50 harga jackpot yang anda beli.
      (contoh:anda membeli 1000 maka:1000 X 50 = 50.000)
  2. Murni Besar x 50 harga jackpot yang anda beli
      (contoh:anda membeli 1000 maka:1000 X 50 = 50.000)
  3. BALAK x 200 harga jackpot yang anda beli
      (contoh:anda membeli 1000 maka:1000 X 200 = 200.000)
  4. ENAM DEWA x 6666 harga jackpot yang anda beli
      (contoh:anda membeli 1000 maka:1000 X 6666 = 6.666.000)

Demikian adalah penjelasan dari Multi Jackpot www.hatipoker188.com terima kasih dan selamat bermain salam hoki dari kami

Ceme Jackpot Winner

TOP ENAM DEWA
No.TanggalNamaPriceWin
122/10 03:00JL12345murni enam6,666,000
222/10 02:57SLEEP12murni enam3,333,000
322/10 02:55KATROK009murni enam666,600
422/10 02:52UCENG09murni enam6,666,000
522/10 02:29JOYPUTRA91murni enam666,600
TOP BALAK
No.TanggalNamaPriceWin
122/10 05:50WINPUK16balak20,000
222/10 05:48BOBOOOY06balak200,000
322/10 05:48MAUWD8JTbalak200,000
422/10 05:45L3ONYD45balak200,000
522/10 05:44NENGTIARbalak200,000
LATEST JACKPOT
No.TanggalNamaPriceWin
122/10 05:50KATULAMPA4murni kecil25,000
222/10 05:50ALLI2murni besar50,000
322/10 05:50WINPUK16balak20,000
422/10 05:50DWBTNTA189murni kecil50,000
522/10 05:49WINLOSE676murni kecil50,000
622/10 05:49IILLEERRmurni kecil25,000
722/10 05:49RIKICIMOYmurni kecil25,000
822/10 05:48GUEST303murni besar25,000
922/10 05:48MARTINCAUmurni kecil50,000
1022/10 05:48MUJI16murni kecil50,000
1122/10 05:48AMANK28murni kecil5,000
1222/10 05:48BOBOOOY06balak200,000
1322/10 05:48MAUWD8JTbalak200,000
1422/10 05:47GY3N6RPIZEmurni besar50,000
1522/10 05:47BAROEN17murni kecil50,000
1622/10 05:47HAHAH998murni kecil50,000
1722/10 05:47AJI_888murni kecil50,000
1822/10 05:46MERSEKmurni kecil50,000
1922/10 05:46MERSEKmurni kecil50,000
2022/10 05:46MERSEKmurni kecil50,000
2122/10 05:46JURAGAN006murni kecil50,000
2222/10 05:46PUTRA9988murni besar25,000
2322/10 05:46ADUK25murni kecil5,000
2422/10 05:45ALDI82murni kecil25,000
2522/10 05:45ARIEPROVOSmurni kecil50,000
2622/10 05:45L3ONYD45balak200,000
2722/10 05:45ALEX_COYmurni kecil25,000
2822/10 05:45WAYPOTmurni besar50,000
2922/10 05:45AGUSAJAH88murni besar25,000
3022/10 05:44CREW14murni kecil50,000
3122/10 05:44MERSEKmurni kecil50,000
3222/10 05:44JURAGAN006murni kecil50,000
3322/10 05:44EINSTEIN89murni kecil5,000
3422/10 05:44KEKEYY04murni kecil5,000
3522/10 05:44NENGTIARbalak200,000
3622/10 05:44AF09422Abalak20,000
3722/10 05:44EVA25balak200,000
3822/10 05:43BONGSANG07murni kecil25,000
3922/10 05:43EINSTEIN89murni besar5,000
4022/10 05:43AADDAIAI56murni besar5,000
4122/10 05:43PEYOT12murni kecil50,000
4222/10 05:43EVISU77murni kecil25,000
4322/10 05:42CHIPEKObalak200,000
4422/10 05:42JL12345balak200,000
4522/10 05:42WINPUK16murni kecil5,000
4622/10 05:41IPUL668murni kecil5,000
4722/10 05:41ASWENDAmurni kecil5,000
4822/10 05:41WINLOSE676murni besar50,000
4922/10 05:41BOTAX_46murni besar5,000
5022/10 05:41ABIICAL80murni besar5,000